Location: Newark
(50.0336°N, 22.0047°E)
Time: 01:12:06
(UTC+00:00)

N. Korean satellite - Pass Details

Date: 29 January 2020
Orbit: 456 x 505 km, 97.2° (Epoch: 27 February)

Event Time Altitude Azimuth Distance (km) Brightness Sun altitude
Rises 03:58:49 0° 19° (NNE) 2,551 10.4 -21.1°
Reaches altitude 10° 04:00:58 10° 28° (NNE) 1,675 9.6 -20.8°
Maximum altitude 04:04:22 38° 98° (E) 761 8.1 -20.2°
Drops below altitude 10° 04:07:47 10° 168° (SSE) 1,686 9.5 -19.7°
Sets 04:09:57 0° 176° (S) 2,571 10.4 -19.3°
